This is the latest recevied weather packets stored in our database for station/object DJ5CM-10. If no packets are shown the sender has not sent any weather packets the latest 10 day(s).
| Time | Temp. | Humidity | Pressure | Rain* | Wind** | Luminosity | Snow |
|---|---|---|---|---|---|---|---|
| 1778004493 | 14.44° C | 53% | 1009.8 hPa | - | - | - | - |
| 1778003593 | 14.44° C | 53% | 1009.7 hPa | - | - | - | - |
| 1778002693 | 15° C | 52% | 1009.7 hPa | - | - | - | - |
| 1778001793 | 15° C | 52% | 1009.8 hPa | - | - | - | - |
| 1778000892 | 15.56° C | 52% | 1009.8 hPa | - | - | - | - |
| 1777999992 | 15.56° C | 52% | 1009.8 hPa | - | - | - | - |
| 1777999092 | 16.11° C | 52% | 1009.8 hPa | - | - | - | - |
| 1777998192 | 16.11° C | 52% | 1010.1 hPa | - | - | - | - |
| 1777997292 | 16.67° C | 52% | 1010.1 hPa | - | - | - | - |
| 1777996392 | 17.22° C | 52% | 1010.1 hPa | - | - | - | - |
| 1777995492 | 17.78° C | 52% | 1010.2 hPa | - | - | - | - |
| 1777994592 | 18.33° C | 52% | 1010.2 hPa | - | - | - | - |
| 1777993691 | 20° C | 56% | 1010.2 hPa | - | - | - | - |
| 1777992792 | 15.56° C | 57% | 1010.4 hPa | - | - | - | - |
| 1777991891 | 16.11° C | 57% | 1010.4 hPa | - | - | - | - |
| 1777990991 | 16.11° C | 57% | 1010.3 hPa | - | - | - | - |
| 1777989191 | 16.11° C | 59% | 1010.4 hPa | - | - | - | - |
| 1777988291 | 16.67° C | 59% | 1010.5 hPa | - | - | - | - |
| 1777987391 | 16.67° C | 61% | 1010.5 hPa | - | - | - | - |
| 1777986491 | 16.67° C | 62% | 1010.5 hPa | - | - | - | - |
| 1777985590 | 16.67° C | 64% | 1010.6 hPa | - | - | - | - |
| 1777984690 | 16.67° C | 65% | 1010.7 hPa | - | - | - | - |
| 1777983790 | 16.67° C | 67% | 1010.8 hPa | - | - | - | - |
| 1777982890 | 16.11° C | 68% | 1010.7 hPa | - | - | - | - |
| 1777981990 | 15.56° C | 69% | 1010.8 hPa | - | - | - | - |
* Rain since midnight (hover to see other rain measurements)
** Current wind speed in m/s (hover to see current wind gust speed)